Vorticity
5 5 5 5 5 5 5 5 4 4 4 5 5 5 6 7 8 8 9 10 11 11 11 11 11 12 11 9 8 8 6 5 9 9 9 7 6 5 3 2 4 5 8 7 7
5 5 5 5 6 6 6 5 5 6 5 5 5 6 6 7 10 5 7 7 8 10 11 11 12 12 12 11 10 9 7 11 9 7 4 3 5 5 6 8 10 9 8 6 6
5 5 6 6 6 7 7 7 7 8 6 6 7 6 6 7 11 0 6 6 7 7 9 9 10 10 11 11 10 11 10 10 9 9 10 11 9 8 8 8 5 7 8 8 9
5 6 6 6 7 6 6 6 6 6 6 6 7 7 6 7 6 6 7 7 7 8 8 7 9 7 7 9 9 9 10 9 7 8 10 9 8 7 6 5 4 5 7 7 8
6 6 6 6 6 6 6 6 7 7 7 7 7 7 6 7 7 8 6 6 8 8 8 8 10 9 9 9 10 7 6 10 10 6 4 1 12 19 13 16 16 14 8 8 8
6 7 7 7 7 7 6 6 6 6 7 7 7 7 8 8 8 9 6 7 8 8 7 7 10 9 13 10 13 12 8 7 -4 -11 14 1 26 -7 11 11 13 11 9 12 9
6 7 7 8 9 11 11 9 7 7 7 7 7 7 6 6 11 6 7 7 7 6 5 3 3 3 5 4 6 11 -2 -5 16 2 11 10 1 16 -1 12 13 22 21 14 7
7 7 7 8 9 9 10 11 10 8 7 7 8 7 5 10 12 2 8 8 7 5 4 4 4 4 4 4 4 4 16 6 -3 8 1 8 -5 20 -1 14 0 11 17 21 8
7 7 7 8 8 8 9 11 11 9 8 7 8 7 14 12 13 5 6 6 7 7 4 4 5 5 6 5 9 7 -1 1 17 3 1 5 20 -3 16 8 7 7 11 18 23
7 7 8 10 9 8 9 10 9 8 8 8 8 12 9 9 9 6 6 6 6 7 6 8 7 6 4 9 -2 0 7 -1 5 -7 6 4 13 9 14 12 6 10 16 19 21
7 8 8 10 10 9 10 10 10 11 12 11 -8 5 1 11 3 8 9 4 4 2 4 9 7 4 6 11 4 7 6 4 7 13 -2 5 12 14 14 6 6 11 13 19 22
7 7 8 9 10 9 9 9 11 6 9 8 8 9 6 5 5 5 9 9 8 7 6 4 4 5 4 11 4 10 4 5 21 -7 2 7 8 24 12 3 3 7 7 4 9
7 7 9 8 11 10 7 8 10 10 10 9 11 11 8 5 4 5 7 7 8 9 6 9 -2 -1 12 6 4 9 5 10 5 -2 4 15 29 15 4 2 6 5 5 10 11
7 7 7 10 8 11 9 7 7 8 20 15 16 24 22 11 10 6 8 10 10 9 9 20 17 17 5 2 10 4 12 6 2 10 8 -3 0 6 7 6 3 5 6 10 11
7 7 6 6 9 9 10 10 7 8 15 10 15 9 12 11 -2 19 15 9 4 4 6 -6 2 4 7 5 14 0 4 8 1 3 27 27 13 14 18 8 2 5 -0 6 13
8 7 6 7 7 9 8 9 11 19 12 7 7 7 14 12 9 2 3 2 2 9 10 9 9 8 6 11 7 2 8 8 18 20 17 15 0 24 10 13 7 8 3 4 8
9 9 8 7 8 8 9 9 19 9 8 12 10 8 3 4 3 1 3 5 8 17 18 19 13 9 10 12 14 9 3 16 16 11 -1 13 15 -36 -5 9 9 9 6 3 5
10 10 10 10 9 10 10 12 11 4 1 -4 1 6 7 3 10 16 21 18 4 11 5 14 23 25 20 15 -10 13 -2 -14 10 7 3 6 12 -7 22 16 9 7 5 2 7
11 11 11 10 11 11 13 16 -0 7 11 8 2 18 27 25 11 1 13 15 15 20 4 7 12 10 6 6 5 18 15 14 -4 14 9 9 23 3 6 8 13 11 8 1 6
9 11 11 14 11 9 11 3 -3 1 -1 0 5 11 3 12 13 6 13 3 5 14 15 11 16 23 19 16 6 5 -3 6 12 4 10 20 13 -27 -7 23 11 7 6 1 -3
7 8 13 11 10 8 6 7 9 9 11 17 10 -2 -3 2 8 13 10 -2 7 12 9 9 15 -3 5 12 13 15 7 3 -1 -3 5 3 18 9 12 16 15 14 9 0 2
7 9 4 10 15 9 10 11 11 7 5 7 9 12 15 13 17 17 5 2 -10 -9 6 4 4 6 -3 6 9 6 6 11 -9 23 -0 -0 8 7 14 18 18 12 6 3 3
9 10 15 14 7 9 11 10 11 11 6 9 3 -2 0 3 11 25 20 13 13 12 8 3 6 13 26 29 34 22 20 20 14 5 -1 -15 -20 -20 -13 3 6 3 5 -11 -10
14 15 10 13 18 17 3 6 16 15 11 8 7 8 10 10 10 -2 9 9 -0 -7 -9 3 14 -16 -46 -52 -46 -24 -1 8 6 14 -16 -22 -13 -15 -12 7 7 13 10 1 -14
12 14 8 -7 6 8 8 1 1 7 11 15 14 12 12 14 10 6 10 20 23 23 14 12 2 11 6 6 2 1 6 8 8 1 -4 -12 -12 -10 -6 2 3 12 -5 27 20
6 7 6 3 4 9 11 6 7 8 6 8 8 7 6 6 4 -5 -6 -2 8 15 18 27 23 12 5 11 18 23 28 25 16 16 14 12 7 14 17 29 21 20 15 31 24
25 22 20 16 15 14 15 17 13 12 20 8 4 6 8 9 14 15 13 12 11 9 9 5 8 5 18 38 -2 57 40 34 25 16 29 22 17 11 14 20 24 24 33 15 8
Height
3129 3130 3130 3130 3130 3129 3129 3129 3128 3129 3128 3128 3127 3126 3127 3125 3124 3122 3121 3120 3118 3117 3116 3116 3115 3115 3115 3116 3116 3116 3117 3117 3118 3117 3118 3118 3119 3119 3119 3119 3119 3119 3119 3119 3119
3130 3130 3129 3130 3129 3129 3128 3127 3128 3128 3127 3126 3126 3126 3125 3124 3123 3121 3120 3119 3117 3116 3116 3115 3114 3114 3114 3114 3114 3114 3115 3116 3116 3116 3116 3116 3116 3116 3116 3115 3116 3115 3115 3115 3115
3130 3130 3129 3129 3128 3127 3127 3128 3127 3127 3126 3126 3125 3124 3124 3123 3122 3121 3120 3119 3118 3117 3116 3115 3114 3113 3113 3112 3113 3113 3114 3114 3114 3114 3115 3115 3114 3113 3112 3112 3110 3111 3110 3111 3112
3129 3130 3129 3127 3127 3126 3127 3126 3126 3126 3125 3125 3124 3123 3122 3122 3123 3120 3119 3119 3118 3117 3116 3115 3114 3113 3113 3112 3112 3113 3113 3113 3113 3113 3113 3112 3111 3110 3109 3107 3107 3107 3107 3107 3108
3129 3129 3128 3127 3126 3126 3126 3124 3125 3125 3124 3124 3123 3122 3121 3121 3121 3120 3119 3118 3117 3117 3116 3115 3115 3113 3113 3112 3112 3112 3112 3112 3112 3112 3112 3110 3108 3106 3105 3104 3103 3103 3103 3103 3104
3128 3128 3126 3125 3125 3125 3124 3124 3123 3123 3122 3122 3121 3121 3120 3120 3119 3118 3118 3118 3117 3116 3116 3115 3115 3114 3113 3113 3113 3112 3112 3111 3111 3110 3110 3108 3105 3105 3104 3102 3100 3100 3099 3099 3100
3127 3126 3125 3124 3123 3123 3122 3122 3121 3120 3120 3119 3119 3118 3118 3119 3118 3117 3117 3117 3116 3116 3116 3115 3115 3115 3114 3113 3112 3112 3111 3110 3110 3109 3107 3106 3104 3102 3101 3100 3097 3095 3095 3095 3096
3126 3125 3125 3123 3122 3121 3120 3119 3118 3118 3117 3117 3117 3116 3116 3116 3115 3116 3116 3116 3115 3115 3115 3114 3114 3114 3113 3113 3112 3110 3110 3109 3108 3106 3105 3104 3102 3098 3097 3096 3094 3092 3091 3090 3091
3125 3124 3123 3122 3121 3119 3118 3117 3116 3115 3115 3115 3115 3114 3114 3113 3114 3114 3115 3114 3114 3114 3114 3113 3113 3112 3112 3111 3110 3109 3108 3107 3106 3104 3102 3101 3099 3096 3094 3093 3092 3090 3088 3087 3087
3124 3123 3122 3120 3119 3117 3116 3115 3114 3113 3113 3113 3112 3114 3112 3112 3112 3112 3113 3112 3112 3112 3112 3112 3111 3110 3109 3109 3108 3107 3106 3104 3103 3102 3099 3098 3096 3093 3092 3091 3090 3088 3086 3084 3083
3123 3122 3120 3118 3117 3115 3114 3113 3114 3113 3110 3110 3110 3109 3109 3110 3110 3110 3111 3110 3110 3110 3110 3109 3109 3108 3107 3106 3105 3104 3103 3101 3100 3098 3096 3093 3091 3089 3089 3089 3087 3086 3084 3082 3081
3121 3120 3118 3116 3115 3113 3112 3111 3110 3110 3108 3106 3106 3107 3107 3107 3108 3108 3108 3109 3108 3107 3107 3108 3106 3105 3104 3103 3103 3101 3100 3099 3097 3096 3094 3090 3088 3086 3086 3086 3086 3084 3083 3081 3080
3120 3118 3117 3115 3113 3112 3111 3110 3109 3107 3105 3104 3103 3103 3104 3105 3105 3105 3106 3105 3105 3105 3104 3103 3103 3102 3101 3101 3100 3098 3097 3096 3095 3092 3090 3086 3084 3083 3084 3084 3083 3082 3081 3080 3079
3118 3116 3115 3114 3114 3111 3110 3109 3107 3105 3103 3102 3100 3100 3101 3101 3102 3102 3102 3104 3102 3102 3101 3101 3099 3099 3098 3098 3097 3095 3094 3093 3091 3091 3089 3086 3085 3080 3080 3080 3080 3079 3079 3078 3077
3116 3115 3113 3112 3111 3109 3109 3107 3106 3106 3105 3101 3098 3098 3098 3100 3100 3100 3100 3100 3100 3099 3101 3098 3096 3096 3095 3094 3093 3093 3091 3090 3088 3086 3085 3082 3083 3075 3076 3076 3076 3076 3076 3076 3075
3113 3112 3111 3110 3109 3108 3106 3105 3106 3107 3100 3098 3097 3097 3097 3097 3097 3097 3098 3098 3097 3095 3094 3093 3092 3092 3091 3090 3090 3089 3088 3087 3084 3082 3083 3078 3079 3072 3071 3072 3071 3072 3073 3074 3074
3111 3110 3109 3108 3107 3105 3104 3104 3106 3101 3100 3098 3097 3097 3097 3096 3095 3095 3095 3094 3094 3092 3090 3089 3088 3087 3086 3086 3086 3086 3086 3085 3086 3084 3080 3075 3075 3067 3065 3065 3066 3067 3069 3071 3071
3109 3107 3106 3105 3104 3103 3102 3103 3102 3098 3097 3096 3096 3095 3094 3094 3092 3091 3090 3089 3088 3088 3087 3085 3084 3082 3082 3083 3083 3083 3084 3085 3091 3084 3075 3074 3065 3058 3059 3059 3061 3063 3065 3066 3067
3106 3104 3103 3102 3101 3100 3101 3100 3098 3096 3095 3094 3093 3091 3090 3090 3090 3088 3087 3086 3084 3084 3085 3082 3080 3079 3079 3079 3082 3079 3079 3080 3078 3076 3076 3063 3057 3054 3054 3054 3056 3058 3060 3061 3062
3104 3102 3101 3099 3098 3098 3098 3096 3095 3094 3093 3092 3091 3091 3088 3087 3087 3086 3085 3083 3082 3081 3080 3079 3078 3076 3075 3075 3075 3076 3077 3076 3076 3078 3076 3056 3052 3047 3048 3049 3051 3053 3055 3057 3058
3102 3100 3099 3096 3095 3095 3093 3092 3091 3091 3090 3090 3088 3087 3086 3085 3083 3082 3081 3080 3078 3077 3077 3076 3075 3073 3071 3069 3069 3070 3068 3070 3071 3068 3065 3061 3045 3045 3045 3046 3047 3048 3050 3052 3052
3099 3097 3095 3093 3094 3091 3090 3089 3088 3087 3086 3086 3084 3083 3081 3080 3079 3079 3077 3076 3075 3073 3073 3072 3068 3066 3066 3064 3063 3062 3061 3063 3064 3060 3058 3056 3036 3041 3041 3041 3042 3043 3045 3046 3047
3095 3094 3092 3091 3089 3087 3086 3086 3085 3083 3082 3081 3080 3078 3077 3076 3076 3072 3071 3071 3070 3070 3068 3067 3063 3061 3057 3058 3055 3054 3056 3057 3057 3054 3048 3053 3035 3038 3038 3039 3040 3041 3041 3040 3039
3092 3090 3088 3086 3085 3084 3083 3082 3081 3079 3078 3077 3076 3074 3072 3071 3070 3067 3067 3065 3065 3065 3064 3063 3058 3056 3052 3053 3054 3052 3052 3053 3052 3046 3042 3028 3030 3033 3036 3036 3034 3033 3032 3031 3030
3088 3086 3084 3083 3082 3081 3080 3079 3077 3076 3074 3073 3070 3070 3069 3068 3066 3063 3062 3061 3060 3060 3058 3057 3049 3049 3045 3046 3044 3041 3041 3042 3039 3037 3034 3019 3023 3027 3027 3027 3024 3024 3022 3021 3020
3084 3082 3080 3079 3078 3076 3074 3073 3073 3071 3071 3069 3068 3066 3065 3064 3062 3059 3058 3056 3053 3052 3051 3049 3042 3039 3032 3037 3035 3026 3029 3029 3026 3024 3017 3017 3009 3018 3017 3016 3015 3013 3013 3013 3013
3078 3077 3075 3074 3073 3073 3071 3069 3067 3067 3064 3064 3062 3060 3059 3057 3054 3053 3050 3048 3047 3045 3043 3042 3039 3036 3023 3029 3027 3016 3016 3015 3013 3014 3013 3010 3008 3006 3007 3006 3006 3005 3006 3007 3008